Location: Newark
(52.8300°N, 8.0000°E)
Time: 09:44:37
(UTC+00:00)

STARLINK-1109 - Pass Details

Date: 31 January 2020
Orbit: 348 x 351 km, 53.0° (Epoch: 19 February)

Event Time Altitude Azimuth Distance (km) Brightness Sun altitude
Rises 17:00:53 0° 284° (WNW) 2,167 7.8 -7.9°
Reaches altitude 10° 17:02:58 10° 276° (W) 1,321 6.8 -8.2°
Maximum altitude 17:05:45 40° 205° (SSW) 537 4.0 -8.6°
Drops below altitude 10° 17:08:32 10° 134° (SE) 1,317 5.3 -9.0°
Enters shadow 17:10:02 - 128° (SE) 1,923 6.1 -9.2°
